Regional Weather Roundup
Issued by NWS

Home | Current Version | Previous Version | Graphics & Text | Print | Product List | Glossary On
Versions: 1 2 3 4 5 6 7 8 9 10 11 12 13 14 15 16 17 18 19 20 21 22 23 24 25 26 27 28 29 30 31 32 33 34 35 36 37 38 39 40 41 42 43 44 45 46 47 48 49 50
000
ASUS43 KMKX 312111
RWRWI

WISCONSIN REGIONAL WEATHER ROUNDUP
NATIONAL WEATHER SERVICE MILWAUKEE/SULLIVAN WI
400 PM CDT FRI OCT 31 2014

NOTE: "FAIR" INDICATES FEW OR NO CLOUDS BELOW 12,000 FEET WITH NO
SIGNIFICANT WEATHER AND/OR OBSTRUCTIONS TO VISIBILITY.

WIZ001-002-006>008-014>016-023>028-312200-
NORTHWEST WISCONSIN

CITY           SKY/WX    TMP DP  RH WIND       PRES   REMARKS
SUPERIOR ARPT  SUNNY     39  18  42 CALM      30.50F
ASHLAND        SUNNY     36  21  54 NE9       30.50F WCI  29
HAYWARD        SUNNY     36  18  48 VRB5      30.47F WCI  32
SIREN          SUNNY     38  16  41 NE7       30.49F WCI  32
CUMBERLAND     SUNNY     36  18  48 N7        30.47S WCI  30
RICE LAKE      SUNNY     38  19  46 NW7       30.49S WCI  33
CHETEK         SUNNY     38  18  45 N8        30.47S WCI  32
LADYSMITH      PTSUNNY   36  21  54 N10       30.47S WCI  29
EAU CLAIRE     MOSUNNY   39  17  41 NE7       30.46F WCI  34
MENOMONIE      SUNNY     40  15  37 N10       30.47F WCI  33
NEW RICHMOND   SUNNY     38  16  40 N10       30.49F WCI  32
OSCEOLA        SUNNY     38  19  45 N8        30.52F WCI  32
$$

WIZ003>005-009-010-017-018-312200-
NORTH CENTRAL WISCONSIN

CITY           SKY/WX    TMP DP  RH WIND       PRES   REMARKS
MANITOWISH WTR CLOUDY    30  22  73 N7        30.42S WCI  23
ARBOR VITAE    CLOUDY    32  26  78 N7        30.42R WCI  25
WOODRUFF       CLOUDY    32  26  78 N7        30.42R WCI  25
RHINELANDER    PTSUNNY   31  21  66 N9        30.40S WCI  23
EAGLE RIVER    MOSUNNY   30  20  65 N8        30.40R WCI  22
LAND O LAKES   PTSUNNY   30  24  77 N12       30.41S WCI  21
PHILLIPS       CLOUDY    32  19  60 N12G20    30.43S WCI  23
TOMAHAWK       PTSUNNY   33  23  66 N9G16     30.42S WCI  26
MEDFORD        PTSUNNY   34  19  55 N13       30.41S WCI  25
MERRILL        PTSUNNY   34  21  57 N14G21    30.40S WCI  25
$$

WIZ029-030-035-036-043>047-312200-
CENTRAL WISCONSIN

CITY           SKY/WX    TMP DP  RH WIND       PRES   REMARKS
WAUSAU         PTSUNNY   36  19  50 N14G22    30.39S WCI  27
MOSINEE        PTSUNNY   36  19  51 N16G22    30.41R WCI  26
MARSHFIELD     CLOUDY    37  18  46 NE13G23   30.41R WCI  29
STEVENS POINT  MOSUNNY   36  17  46 N15G22    30.40R WCI  26
WAUPACA        CLOUDY    40  18  40 N16G23    30.38S WCI  31
WAUTOMA        MOSUNNY   39  17  41 N12G22    30.39R WCI  32
WISC RAPIDS    MOSUNNY   38  16  40 N15G31    30.42R WCI  29
CAMP DOUGLAS   SUNNY     38  17  42 N9G22     30.41R WCI  32
$$

WIZ011>013-019>022-031-037>040-048>050-312200-
NORTHEAST WISCONSIN

CITY           SKY/WX    TMP DP  RH WIND       PRES   REMARKS
ANTIGO         PTSUNNY   33  18  55 N17G23    30.38R WCI  22
SHAWANO        CLOUDY    39  21  48 N16G22    30.38R WCI  30
OCONTO         PTSUNNY   36  20  51 N13G25    30.37R WCI  27
STURGEON BAY   CLOUDY    36  21  55 N28G33    30.34R WCI  23
GREEN BAY      PTSUNNY   38  22  52 N21G26    30.36R WCI  28
MANITOWOC      CLOUDY    37  20  50 N21G32    30.33R WCI  26
APPLETON       PTSUNNY   37  19  48 N21G31    30.35R WCI  27
CLINTONVILLE   PTSUNNY   36  19  51 N16G23    30.37R WCI  26
OSHKOSH        MOSUNNY   37  19  48 N22       30.34R WCI  26
$$

WIZ032>034-041-042-053>061-312200-
SOUTHWEST WISCONSIN

CITY           SKY/WX    TMP DP  RH WIND       PRES   REMARKS
LA CROSSE      PTSUNNY   44  19  36 N13       30.44R
SPARTA         MOSUNNY   40  15  36 N17       30.43S WCI  32
VIROQUA        MOSUNNY   38  18  44 N15G22    30.39S WCI  29
BOSCOBEL       MOSUNNY   43  17  35 N13G22    30.41R
PRAIRIE DU CHI MOSUNNY   41  18  38 NW13G21   30.41R
PLATTEVILLE    MOSUNNY   40  18  41 N23G29    30.37R WCI  30
$$

WIZ056-057-062-063-064-067-068-312200-
SOUTH CENTRAL WISCONSIN

CITY           SKY/WX    TMP DP  RH WIND       PRES   REMARKS
REEDSBURG      PTSUNNY   38  20  48 N20G25    30.38R WCI  28
BARABOO/DELLS  PTSUNNY   37  17  44 N13G22    30.37R WCI  29
LONE ROCK      SUNNY     44  17  33 N21G26    30.39R
MINERAL POINT  MOSUNNY   39  16  38 N15G26    30.36R WCI  31
MADISON        PTSUNNY   40  18  41 N21G26    30.36R WCI  30
MIDDLETON      MOSUNNY   39  16  39 N15G22    30.36R WCI  31
WATERTOWN      CLOUDY    38  20  49 N23G29    30.32R WCI  27
MONROE         PTSUNNY   37  21  52 N17G29    30.32R WCI  28
JANESVILLE     MOSUNNY   39  18  41 N23G29    30.30S WCI  29
$$

WIZ051-052-058>065-066-070>072-312200-
SOUTHEAST WISCONSIN

CITY           SKY/WX    TMP DP  RH WIND       PRES   REMARKS
MILWAUKEE      CLOUDY    37  21  52 N26G39    30.28R WCI  25
WAUKESHA       PTSUNNY   36  19  51 N18G29    30.28S WCI  25
MILWAUKEE/TIMM CLOUDY    37  19  48 N20G33    30.30R WCI  27
RACINE         CLOUDY    38  22  52 N26G41    30.27R WCI  26
BURLINGTON     CLOUDY    37  18  45 N22G30    30.28R WCI  27
KENOSHA        CLOUDY    38  21  50 N23G30    30.26R WCI  27
FOND DU LAC    CLOUDY    39  18  42 N24G32    30.35R WCI  28
SHEBOYGAN      CLOUDY    37  19  48 N20G32    30.31R WCI  27
WEST BEND      CLOUDY    36  19  51 N21G32    30.30R WCI  24
JUNEAU         PTSUNNY   37  19  47 N20G26    30.33R WCI  27
$$

LSZ147-162-312200-
LAKE SUPERIOR

STATION/POSITION TIME  TEMP    WIND        PRES    WAVE
                       AIR SEA DIR/SP/G            HT/PER
                 (UTC) (F)     (DEG/KT/KT) (MB)    (FT/S)
W MID LAKE BUOY  2050   34 43  320/  8/ 12 1032.8F   5/ 8
DEVILS ISLAND    2100   35      10/  2/  3 1033.4F
PORT WING        2000   38      50/  3/  5 1033.2
SAXON HARBOR     2000   36      10/ 10/ 16 1032.5F
$$

LMZ867-665-643>646-312200-
LAKE MICHIGAN

STATION/POSITION TIME  TEMP    WIND        PRES    WAVE
                       AIR SEA DIR/SP/G            HT/PER
                 (UTC) (F)     (DEG/KT/KT) (MB)    (FT/S)
CHAMBERS ISLAND  2000   37     340/ 24/ 30 1027.1R
N MID LAKE BUOY  2050   36 48  360/ 29/ 35 1026.3R   7/ 6
NORTHPORT PIER   2101   36     350/ 26     1027.8R
SISTER BAY       2013          360/ 29/ 43   N/A
KEWAUNEE LAKESHO 2000   36     350/ 20/ 31 1025.3R
SHEBOYGAN LAKESH 2100   38 47  360/ 36/ 41 1027.2R
PORT WASHINGTON  2100   38     360/ 15     1026.8
ATWATER BUOY     2100   39     360/ 31     1025.9R
MILWAUKEE LAKESH 2000   38     340/ 22/ 30   N/A
S MID LAKE BUOY  2050   39 47  340/ 33/ 39 1021.9R  16/11
KENOSHA   LAKESH 2100   39     340/ 32/ 39 1023.7R
$$

TC  - TEMPERATURE IN CELSIUS
VSB - VISIBILITY IN STATUTE MILES
WCI - WIND CHILL INDEX
HX  - HEAT INDEX




USA.gov is the U.S. government's official web portal to all federal, state and local government web resources and services.